Home   Weather   A Coruña   Past weeks

Flag for Spain Past Weather in A Coruña, Spain — Yesterday and Last 2 Weeks

Now
64 °F

Mild.


Feels Like: 64 °F
Forecast: 63 / 80 °F
Wind: 10 mph from Northeast

Location: La Coruna

Current Time: Aug 19, 2017 at 10:52:56 pm

Latest Report: Aug 19, 2017 at 10:00 pm


Visibility: 9 mi

Pressure: 30.25 "Hg

Humidity: 86%

Dew Point: 60 °F

Location of A CoruñaLocation

Past Weather in A Coruña — Graph

°F

A Coruña Temperature Yesterday

Maximum temperature yesterday: 75 °F (at 2:00 pm)
Minimum temperature yesterday: 64 °F (at 11:00 pm)
Average temperature yesterday: 69 °F

High & Low Weather Summary for the Past Weeks

 TemperatureHumidityPressure
High77 °F (Aug 17, 2:00 pm)100% (Aug 4, 11:00 pm)30.40 "Hg (Aug 4, 11:00 pm)
Low58 °F (Aug 12, 8:00 am)51% (Aug 8, 5:00 pm)29.89 "Hg (Aug 14, 6:00 am)
Average66 °F79%30.18 "Hg
* Reported Aug 4 9:00 pm — Aug 19 9:00 pm, A Coruña. Weather by CustomWeather, © 2017

Note: Actual official high and low records may vary slightly from our data, if they occured in-between our weather recording intervals... More about our weather records

Advertising

A Coruña Weather History for the Previous 24 Hours

Scroll right to see more
 ConditionsComfort  
Time TempWeatherWind HumidityBarometerVisibility
9:00 pm
Sat, Aug 19
65 °FMild.13 mph85%30.24 "Hg9 mi
8:00 pm65 °FMild.10 mph82%30.22 "Hg11 mi
7:00 pm67 °FMild.9 mph79%30.22 "Hg11 mi
6:00 pm67 °FMild.14 mph78%30.22 "Hg12 mi
5:00 pm68 °FMild.17 mph75%30.22 "Hg12 mi
4:00 pm68 °FMild.13 mph73%30.22 "Hg12 mi
3:00 pm69 °FMild.12 mph72%30.23 "Hg12 mi
2:00 pm72 °FPassing clouds.13 mph64%30.23 "Hg16 mi
1:00 pm71 °FMild.13 mph67%30.23 "Hg12 mi
12:00 pm67 °FMild.10 mph76%30.25 "Hg12 mi
11:00 am68 °FOvercast.10 mph74%30.24 "Hg16 mi
10:00 am67 °FMild.9 mph78%30.24 "Hg12 mi
9:00 am64 °FMild.9 mph81%30.24 "Hg12 mi
8:00 am63 °FMild.9 mph83%30.23 "Hg12 mi
7:00 am63 °FMild.7 mph87%30.22 "Hg10 mi
6:00 am63 °FMild.7 mph86%30.20 "Hg10 mi
5:00 am63 °FClear.7 mph89%30.22 "Hg12 mi
4:00 am62 °FMild.7 mph92%30.22 "Hg8 mi
3:00 am63 °FMild.6 mph91%30.22 "Hg8 mi
2:00 am63 °FClear.7 mph92%30.22 "Hg12 mi
1:00 am63 °FMild.6 mph92%30.23 "Hg6 mi
12:00 am64 °FMild.7 mph92%30.24 "Hg7 mi
11:00 pm
Fri, Aug 18
64 °FPassing clouds.9 mph90%30.24 "Hg12 mi
10:00 pm65 °FMild.7 mph90%30.21 "Hg8 mi
Weather by CustomWeather, © 2017

See weather overviewHow to use our weather pages